When you browse on this site, cookies collect data to enhance your experience and personalize the content and advertising you see.
Visit our Privacy Policy to learn more. By continuing to use the site, you agree to this use of cookies and data.
  • In France
  • List of Countries
  • For 7 days
  • Water Temperature
  • Satellite Maps
  • Weather Map
  • Weather Widgets
  • user-avatar
    Login

    Hourly Weather Naftalan

    Today, 16 February, Saturday

    Time Temperature Precipitation Wind Pressure Humidity
    00:00 +5°C° 1.5 mm 6 mps 765 mmHg 87%
    01:00 +5°C° 1.5 mm 7 mps 765 mmHg 87%
    02:00 +5°C° 1.5 mm 7 mps 765 mmHg 88%
    03:00 +5°C° 1.5 mm 7 mps 765 mmHg 88%
    04:00 +5°C° 1.5 mm 7 mps 765 mmHg 88%
    05:00 +5°C° 1.5 mm 6 mps 765 mmHg 88%
    06:00 +4°C° 1.5 mm 6 mps 765 mmHg 88%
    07:00 +5°C° 0.5 mm 6 mps 765 mmHg 87%
    08:00 +6°C° 0.5 mm 5 mps 765 mmHg 86%
    09:00 +6°C° 0.5 mm 5 mps 765 mmHg 85%
    10:00 +6°C° 0.2 mm 5 mps 765 mmHg 82%
    11:00 +6°C° 0.2 mm 4 mps 765 mmHg 79%
    12:00 +8°C° 0.2 mm 3 mps 765 mmHg 76%
    13:00 +8°C° 0.1 mm 3 mps 765 mmHg 75%
    14:00 +8°C° 0.1 mm 2 mps 765 mmHg 74%
    15:00 +8°C° 0.1 mm 2 mps 765 mmHg 74%
    16:00 +8°C° 0 mm 2 mps 765 mmHg 76%
    17:00 +8°C° 0 mm 3 mps 765 mmHg 78%
    18:00 +7°C° 0 mm 3 mps 765 mmHg 81%
    19:00 +7°C° 0 mm 3 mps 765 mmHg 82%
    20:00 +6°C° 0 mm 4 mps 765 mmHg 84%
    21:00 +6°C° 0 mm 4 mps 765 mmHg 85%
    22:00 +6°C° 0 mm 4 mps 765 mmHg 87%
    23:00 +7°C° 0 mm 4 mps 765 mmHg 88%

    Tomorrow, 17 February, Sunday

    Time Temperature Precipitation Wind Pressure Humidity
    00:00 +7°C° 0 mm 4 mps 765 mmHg 89%
    01:00 +8°C° 0 mm 3 mps 764 mmHg 89%
    02:00 +8°C° 0 mm 3 mps 764 mmHg 89%
    03:00 +8°C° 0 mm 2 mps 764 mmHg 89%
    04:00 +8°C° 0.1 mm 2 mps 764 mmHg 89%
    05:00 +9°C° 0.1 mm 1 mps 764 mmHg 89%
    06:00 +8°C° 0.1 mm 1 mps 765 mmHg 89%
    07:00 +7°C° 0.3 mm 2 mps 765 mmHg 87%
    08:00 +7°C° 0.3 mm 4 mps 766 mmHg 85%
    09:00 +7°C° 0.3 mm 5 mps 766 mmHg 83%
    10:00 +7°C° 0 mm 5 mps 766 mmHg 80%
    11:00 +7°C° 0 mm 6 mps 766 mmHg 76%
    12:00 +8°C° 0 mm 6 mps 766 mmHg 72%
    13:00 +8°C° 0 mm 5 mps 766 mmHg 71%
    14:00 +8°C° 0 mm 4 mps 766 mmHg 69%
    15:00 +8°C° 0 mm 4 mps 766 mmHg 67%
    16:00 +7°C° 0 mm 4 mps 766 mmHg 70%
    17:00 +7°C° 0 mm 4 mps 766 mmHg 72%
    18:00 +7°C° 0 mm 3 mps 766 mmHg 75%
    19:00 +6°C° 0 mm 4 mps 766 mmHg 77%
    20:00 +7°C° 0 mm 5 mps 766 mmHg 79%
    21:00 +7°C° 0 mm 5 mps 766 mmHg 82%
    22:00 +7°C° 0 mm 6 mps 766 mmHg 84%
    23:00 +7°C° 0 mm 6 mps 766 mmHg 86%

    Day after tomorrow, 18 February, Monday

    Time Temperature Precipitation Wind Pressure Humidity
    00:00 +7°C° 0 mm 6 mps 765 mmHg 88%
    01:00 +7°C° 0 mm 5 mps 765 mmHg 85%
    02:00 +6°C° 0 mm 5 mps 764 mmHg 82%
    03:00 +6°C° 0 mm 4 mps 764 mmHg 79%
    04:00 +7°C° 0 mm 3 mps 764 mmHg 79%
    05:00 +5°C° 0 mm 3 mps 763 mmHg 78%
    06:00 +5°C° 0 mm 3 mps 763 mmHg 78%
    07:00 +7°C° 0 mm 3 mps 763 mmHg 72%
    08:00 +7°C° 0 mm 4 mps 763 mmHg 67%
    09:00 +8°C° 0 mm 4 mps 763 mmHg 62%
    10:00 +10°C° 0 mm 4 mps 762 mmHg 56%
    11:00 +11°C° 0 mm 4 mps 762 mmHg 50%
    12:00 +13°C° 0 mm 4 mps 761 mmHg 44%
    13:00 +13°C° 0 mm 3 mps 760 mmHg 43%
    14:00 +14°C° 0 mm 2 mps 760 mmHg 42%
    15:00 +15°C° 0 mm 1 mps 759 mmHg 41%
    16:00 +14°C° 0 mm 2 mps 759 mmHg 46%
    17:00 +13°C° 0 mm 2 mps 759 mmHg 51%
    18:00 +11°C° 0 mm 3 mps 759 mmHg 55%
    19:00 +10°C° 0 mm 2 mps 760 mmHg 60%
    20:00 +10°C° 0 mm 2 mps 760 mmHg 64%
    21:00 +9°C° 0 mm 2 mps 760 mmHg 69%
    22:00 +9°C° 0 mm 2 mps 760 mmHg 70%
    23:00 +9°C° 0 mm 3 mps 761 mmHg 72%

    19 February, Tuesday

    Time Temperature Precipitation Wind Pressure Humidity
    00:00 +9°C° 0 mm 3 mps 761 mmHg 73%
    01:00 +7°C° 0 mm 5 mps 761 mmHg 74%
    02:00 +6°C° 0 mm 7 mps 762 mmHg 76%
    03:00 +6°C° 0 mm 9 mps 762 mmHg 77%
    04:00 +5°C° 0.1 mm 9 mps 763 mmHg 76%
    05:00 +3°C° 0.1 mm 10 mps 763 mmHg 75%
    06:00 +2°C° 0.1 mm 11 mps 764 mmHg 74%
    07:00 +2°C° 0.1 mm 11 mps 765 mmHg 73%
    08:00 +2°C° 0.1 mm 11 mps 766 mmHg 72%
    09:00 +2°C° 0.1 mm 10 mps 767 mmHg 72%
    10:00 +2°C° 0.2 mm 11 mps 767 mmHg 72%
    11:00 +2°C° 0.2 mm 11 mps 768 mmHg 72%
    12:00 +1°C° 0.2 mm 11 mps 768 mmHg 72%
    13:00 +1°C° 0.1 mm 11 mps 769 mmHg 72%
    14:00 +1°C° 0.1 mm 11 mps 769 mmHg 72%
    15:00 +1°C° 0.1 mm 11 mps 770 mmHg 73%
    16:00 +1°C° 0.3 mm 11 mps 771 mmHg 72%
    17:00 +1°C° 0.3 mm 10 mps 772 mmHg 71%
    18:00 +1°C° 0.3 mm 10 mps 773 mmHg 70%
    19:00 +1°C° 0.2 mm 9 mps 773 mmHg 70%
    20:00 +1°C° 0.2 mm 8 mps 774 mmHg 70%
    21:00 +1°C° 0.2 mm 8 mps 775 mmHg 69%
    22:00 +2°C° 0.1 mm 7 mps 775 mmHg 70%
    23:00 +2°C° 0.1 mm 6 mps 776 mmHg 70%

    20 February, Wednesday

    Time Temperature Precipitation Wind Pressure Humidity
    00:00 +2°C° 0.1 mm 5 mps 776 mmHg 70%
    01:00 +2°C° 0 mm 5 mps 776 mmHg 70%
    02:00 +3°C° 0 mm 4 mps 776 mmHg 70%
    03:00 +3°C° 0 mm 4 mps 776 mmHg 69%
    04:00 +3°C° 0 mm 4 mps 776 mmHg 69%
    05:00 +3°C° 0 mm 3 mps 776 mmHg 70%
    06:00 +3°C° 0 mm 3 mps 776 mmHg 70%
    07:00 +4°C° 0 mm 3 mps 777 mmHg 69%
    08:00 +4°C° 0 mm 4 mps 777 mmHg 67%
    09:00 +5°C° 0 mm 4 mps 777 mmHg 66%
    10:00 +6°C° 0 mm 4 mps 777 mmHg 65%
    11:00 +6°C° 0 mm 4 mps 777 mmHg 64%
    12:00 +7°C° 0 mm 5 mps 776 mmHg 63%
    13:00 +7°C° 0 mm 5 mps 776 mmHg 63%
    14:00 +7°C° 0 mm 5 mps 775 mmHg 64%
    15:00 +7°C° 0 mm 6 mps 775 mmHg 64%
    16:00 +7°C° 0 mm 6 mps 775 mmHg 68%
    17:00 +7°C° 0 mm 6 mps 775 mmHg 72%
    18:00 +5°C° 0 mm 6 mps 774 mmHg 77%
    19:00 +5°C° 0 mm 6 mps 774 mmHg 77%
    20:00 +5°C° 0 mm 7 mps 774 mmHg 78%
    21:00 +5°C° 0 mm 7 mps 774 mmHg 79%
    22:00 +5°C° 0 mm 7 mps 774 mmHg 79%
    23:00 +5°C° 0 mm 7 mps 773 mmHg 79%

    21 February, Thursday

    Time Temperature Precipitation Wind Pressure Humidity
    00:00 +5°C° 0 mm 6 mps 773 mmHg 79%
    01:00 +5°C° 0 mm 6 mps 772 mmHg 79%
    02:00 +5°C° 0 mm 5 mps 772 mmHg 80%
    03:00 +5°C° 0 mm 5 mps 771 mmHg 80%
    04:00 +5°C° 0 mm 4 mps 771 mmHg 82%
    05:00 +4°C° 0 mm 4 mps 771 mmHg 84%
    06:00 +4°C° 0 mm 3 mps 771 mmHg 87%
    07:00 +4°C° 0 mm 3 mps 771 mmHg 85%
    08:00 +5°C° 0 mm 3 mps 771 mmHg 84%
    09:00 +6°C° 0 mm 2 mps 771 mmHg 83%
    10:00 +7°C° 0 mm 2 mps 771 mmHg 78%
    11:00 +8°C° 0 mm 2 mps 770 mmHg 73%
    12:00 +10°C° 0 mm 1 mps 770 mmHg 68%
    13:00 +10°C° 0 mm 2 mps 770 mmHg 66%
    14:00 +10°C° 0 mm 2 mps 769 mmHg 64%
    15:00 +11°C° 0 mm 3 mps 769 mmHg 61%
    16:00 +10°C° 0 mm 3 mps 769 mmHg 65%
    17:00 +9°C° 0 mm 3 mps 769 mmHg 69%
    18:00 +9°C° 0 mm 3 mps 769 mmHg 73%
    19:00 +9°C° 0 mm 3 mps 769 mmHg 75%
    20:00 +8°C° 0 mm 3 mps 769 mmHg 78%
    21:00 +8°C° 0 mm 3 mps 769 mmHg 80%
    22:00 +8°C° 0 mm 2 mps 768 mmHg 81%
    23:00 +7°C° 0 mm 2 mps 768 mmHg 82%
    Show more